Regional Weather Roundup
Issued by NWS

Home | Current Version | Previous Version | Text Only | Print | Product List | Glossary Off
Versions: 1 2 3 4 5 6 7 8 9 10 11 12 13 14 15 16 17 18 19 20 21 22 23 24 25 26 27 28

000
ASUS45 KSLC 021410
RWRUT

UTAH REGIONAL WEATHER ROUNDUP
NATIONAL WEATHER SERVICE SALT LAKE CITY UT
700 AM MST FRI DEC 02 2016

UTZ001>011-023>025-021500-

NORTHERN UTAH

CITY           SKY/WX    TMP DP  RH WIND       PRES   REMARKS
BRIGHAM CITY     N/A     27  21  77 CALM      30.19R
HILL AFB       PTCLDY    22  15  74 E10       30.16R WCI  11
LOGAN          CLEAR     21  18  88 E3        30.20R
OGDEN          CLEAR     21  15  78 S8        30.16R WCI  11
SALT LAKE CITY PTCLDY    26  23  88 CALM      30.17R
TOOELE VALLEY  CLOUDY    23  23 100 SE5       30.18R WCI  17
WENDOVER       CLEAR     27  14  59 N5        30.22R WCI  21
HEBER CITY     MOCLDY    12   9  85 CALM      30.13R
WEST JORDAN    MOCLDY    26  26 100 NW13      30.17R WCI  14

$$

UTZ011>015-024>027-021500-

CENTRAL/NORTHEAST UTAH

CITY           SKY/WX    TMP DP  RH WIND       PRES   REMARKS
PROVO AIRPORT  MOCLDY    21  18  88 SE8       30.17R WCI  11
MOAB/CANYONLAN CLOUDY    28  20  71 N7        30.04R WCI  21
DELTA          CLEAR     21  21 100 N8        30.13R WCI  12
PRICE          CLOUDY    23  12  62 N7        30.03R WCI  15
ROOSEVELT      CLOUDY    23  21  93 W5        30.14R WCI  17
VERNAL         MOCLDY    16  11  80 SW3       30.12R

$$

UTZ013>016-019>022-027-021500-

SOUTHERN UTAH

CITY           SKY/WX    TMP DP  RH WIND       PRES   REMARKS
BRYCE CANYON   CLOUDY    20  12  71 N13       29.99R WCI   7
CEDAR CITY     CLOUDY    25  18  74 N7        30.04R WCI  17
MILFORD        CLOUDY    26  20  77 N16       30.10R WCI  14
ST GEORGE      CLOUDY    37  19  48 SW9       30.04R WCI  31
HANKSVILLE     CLOUDY    32  21  64 CALM      30.09R
BLANDING       CLOUDY    27  17  66 CALM      30.04S

$$

REGIONAL REPORTS     COLORADO/ARIZONA

CITY           SKY/WX    TMP DP  RH WIND       PRES   REMARKS
CRAIG, CO      CLOUDY    12   7  80 CALM      30.10S
GRAND JUNCTION CLOUDY    28  22  78 CALM      30.06R
RIFLE, CO      CLOUDY    21  18  88 SE5       30.07R WCI  15
MONTROSE, CO   CLOUDY    20  12  71 SE12      30.07R WCI   8
CORTEZ, CO     CLOUDY    20  16  84 NE3       29.99R
COLORADO CITY  PTSUNNY   32  25  74 W5        30.01R WCI  27
PAGE, AZ       PTCLDY    33  14  45 CALM      29.99R
GRAND CANYON   CLOUDY    28  15  58 NE12      29.93R WCI  18
KINGMAN, AZ    MOCLDY    36  18  48 NE8       29.95R WCI  30
FLAGSTAFF, AZ  PTCLDY    25  13  60 E7        29.89R WCI  17

$$

REGIONAL REPORTS    NEVADA/IDAHO/WYOMING

CITY           SKY/WX    TMP DP  RH WIND       PRES   REMARKS
LAS VEGAS, NV  PTCLDY    46  16  30 N20G28    30.03R
ELY, NY        PTCLDY    17  12  80 N12       30.12R WCI   4
ELKO, NV       CLEAR     13   9  84 CALM      30.22R
POCATELLO, ID  CLOUDY    20  19  96 W5        30.26R WCI  13
BURLEY, ID     CLOUDY    25  22  88 W7        30.27R WCI  17
FORT BRIDGER,    N/A     11  10  99 W7        30.13R WCI   0
EVANSTON, WY   FOG       14  10  84 N7        30.10R VSB 1/4 WCI   4
ROCK SPRINGS,  CLOUDY     9   6  88 W6        30.11R WCI  -1

$$




USA.gov is the U.S. government's official web portal to all federal, state and local government web resources and services.